Location: Bittkow
(50.3000°N, 19.0000°E)
Time: 22:25:14
(UTC+00:00)

SL-8 Rocket - Pass Details

Date: 19 September 2020
Orbit: 957 x 991 km, 82.9° (Epoch: 20 October)

Event Time Altitude Azimuth Distance (km) Brightness Sun altitude
Rises 01:04:46 0° 347° (NNW) 3,705 7.5 -29.6°
Reaches altitude 10° 01:07:22 10° 343° (NNW) 2,748 6.7 -29.3°
Enters shadow 01:12:13 46° 306° (NW) 1,288 4.5 -28.7°
